Weather History for Augusta Bush, GA

Change the Weather History Date:

Saturday, February 11, 2012

  Actual Average Record
Temperature  
Mean Temperature 42 °F 48 °F  
Max Temperature 54 °F 61 °F 81 °F (1932)
Min Temperature 29 °F 35 °F 12 °F (1973)
Degree Days  
Heating Degree Days 23 17  
Month to date heating degree days 145 193  
Since 1 July heating degree days 1515 1778  
Cooling Degree Days 0 0  
Month to date cooling degree days 0 0  
Year to date cooling degree days 0 1  
Moisture  
Dew Point 24 °F    
Average Humidity 54    
Maximum Humidity 82    
Minimum Humidity 25    
Precipitation  
Precipitation T in 0.13 in 1.30 in (2013)
Month to date precipitation 0.02 1.45  
Year to date precipitation 1.42 5.36  
Sea Level Pressure  
Sea Level Pressure 29.98 in    
Wind  
Wind Speed 16 mph (WNW)    
Max Wind Speed 31 mph    
Max Gust Speed 41 mph    
Visibility 10 miles    
Events      
T = Trace of Precipitation, MM = Missing Value Source: NWS Daily Summary

Daily Weather History Graph

Daily Weather History Graph

Search for Another Location

Airport:

Trip Planner

Search our weather history database for the weather conditions in past years. The results will help you decide how hot, cold, wet, or windy it might be!

Date:

Astronomy

Feb. 11, 2012 Rise Set
Actual Time 7:16 AM EST 6:08 PM EST
Civil Twilight 6:50 AM EST 6:34 PM EST
Nautical Twilight 6:21 AM EST 7:03 PM EST
Astronomical Twilight 5:52 AM EST 7:32 PM EST
Moon 10:36 PM EST (2/11) 9:14 AM EST (2/11)
Length of Visible Light 11h 43m
Length of Day
10h 52m
Waning Gibbous, 82% of the Moon is Illuminated
Feb 11
Waning Gibbous
Feb 14
Last Quarter
Feb 21
New
Feb 29
First Quarter
Mar 8
Full

Hourly Weather History & Observations

Time (EST) Temp. Windchill Dew Point Humidity Pressure Visibility Wind Dir Wind Speed Gust Speed Precip Events Conditions
12:53 AM 48.0 °F - 41.0 °F 77% 29.94 in 9.0 mi WSW 5.8 mph - 0.00 in   Overcast
1:53 AM 46.9 °F - 41.0 °F 80% 29.90 in 9.0 mi West 5.8 mph - 0.00 in   Overcast
2:53 AM 48.0 °F - 39.9 °F 74% 29.87 in 10.0 mi West 5.8 mph - N/A   Overcast
3:53 AM 46.9 °F - 39.9 °F 77% 29.84 in 10.0 mi WSW 4.6 mph - 0.00 in   Overcast
4:53 AM 45.0 °F 41.2 °F 37.0 °F 74% 29.86 in 10.0 mi West 6.9 mph - N/A   Clear
5:53 AM 44.1 °F 38.6 °F 36.0 °F 73% 29.89 in 10.0 mi West 10.4 mph - N/A   Clear
6:53 AM 44.1 °F 38.1 °F 35.1 °F 71% 29.91 in 10.0 mi West 11.5 mph - N/A   Clear
7:53 AM 44.1 °F 39.0 °F 35.1 °F 71% 29.91 in 10.0 mi WNW 9.2 mph - N/A   Clear
8:53 AM 46.9 °F - 35.1 °F 63% 29.90 in 10.0 mi NW 18.4 mph 26.5 mph N/A   Clear
9:53 AM 48.9 °F - 34.0 °F 56% 29.91 in 10.0 mi WNW 15.0 mph 26.5 mph N/A   Clear
10:53 AM 48.9 °F - 28.9 °F 46% 29.92 in 10.0 mi NW 26.5 mph 35.7 mph N/A   Partly Cloudy
11:53 AM 51.1 °F - 26.1 °F 38% 29.92 in 10.0 mi WNW 18.4 mph 32.2 mph N/A   Mostly Cloudy
12:53 PM 52.0 °F - 25.0 °F 35% 29.91 in 10.0 mi WNW 19.6 mph 29.9 mph N/A   Scattered Clouds
1:53 PM 52.0 °F - 18.0 °F 26% 29.89 in 10.0 mi WNW 24.2 mph 34.5 mph N/A   Partly Cloudy
2:53 PM 51.1 °F - 19.9 °F 29% 29.92 in 10.0 mi WNW 17.3 mph 34.5 mph N/A   Clear
3:53 PM 48.0 °F - 15.1 °F 27% 29.95 in 10.0 mi WNW 23.0 mph 34.5 mph N/A   Clear
4:53 PM 45.0 °F 37.1 °F 10.9 °F 25% 29.99 in 10.0 mi NW 19.6 mph 32.2 mph N/A   Clear
5:53 PM 41.0 °F 31.6 °F 10.9 °F 29% 30.04 in 10.0 mi WNW 20.7 mph 31.1 mph N/A   Clear
6:53 PM 37.9 °F 26.6 °F 10.9 °F 33% 30.09 in 10.0 mi NW 25.3 mph 32.2 mph N/A   Clear
7:53 PM 36.0 °F 23.9 °F 9.0 °F 33% 30.13 in 10.0 mi NW 25.3 mph 35.7 mph N/A   Clear
8:53 PM 33.1 °F 20.9 °F 9.0 °F 37% 30.16 in 10.0 mi NNW 21.9 mph 31.1 mph N/A   Clear
9:53 PM 32.0 °F 20.1 °F 9.0 °F 38% 30.20 in 10.0 mi NW 19.6 mph 26.5 mph N/A   Clear
10:53 PM 30.0 °F 19.5 °F 8.1 °F 40% 30.23 in 10.0 mi NW 13.8 mph - N/A   Clear
11:53 PM 28.9 °F 19.8 °F 8.1 °F 41% 30.27 in 10.0 mi WNW 10.4 mph - N/A   Clear